[[{"header":{"parameterUnit":"m.s-1","parameterCategory":1,"la1":30.2991,"la2":30.254,"lo1":-89.0895,"lo2":-89.0444,"dy":0.0017,"dx":0.0017,"nx":28,"ny":28,"refTime":"2026-01-30T03:00:00:Z","depth":0,"parameterNumber":2,"parameterNumberName":"U-component_of_WINDS"},"data":[0,0,0,0,0,0,0,0,0,0,0,0,0,0,0,0,0,0,0,0,0,0,0,0,0,0,0,0,0,0,0,0,0,0,0,0,0,0,0,0,0,0,0,0,0,0,0,0,0,0,0,0,0,0,0,0,0,0,3.9263,3.9263,0,3.93,3.93,3.9301,3.9244,3.9242,3.924,3.9239,3.9275,3.9278,3.928,0,0,0,0,0,0,0,0,0,0,0,0,0,3.9143,3.9146,3.9263,3.9263,3.9264,3.93,3.93,3.9301,3.9245,3.9242,3.924,3.9238,3.9274,3.9277,3.9281,0,0,0,0,0,0,0,0,0,0,0,0,0,3.9189,3.9146,3.9263,3.924,3.9238,3.93,3.93,3.9301,3.9245,3.9242,3.9239,3.9237,3.9273,3.9277,3.9281,3.9366,0,0,3.9294,3.9296,0,0,0,0,0,0,0,0,3.9187,3.9194,3.9243,3.9242,3.924,3.9265,3.9271,3.9323,3.9246,3.9243,3.9239,3.9235,3.9274,3.9278,3.9291,3.9367,3.9369,3.9294,3.9297,3.9299,3.93,0,0,0,0,0,0,0,3.9183,3.9192,3.9277,3.9244,3.9242,3.9228,3.9231,3.9281,3.9274,3.9243,3.9239,3.9244,3.9272,3.9287,3.9291,3.9369,3.9294,3.9298,3.93,3.9302,3.9519,3.9522,0,0,0,0,0,0,3.9183,3.9189,3.9276,3.9278,3.9206,3.9233,3.9236,3.926,3.9273,3.9273,3.9246,3.9241,3.9281,3.9287,3.9292,3.9393,3.9299,3.9302,3.9305,3.9515,3.9519,3.9523,0,0,0,0,0,0,3.9181,3.9191,3.9275,3.9233,3.9242,3.9238,3.9264,3.9262,3.9277,3.9276,3.9275,3.9263,3.9279,3.9287,3.9348,3.9394,3.9304,3.9308,3.9512,3.9517,3.9521,3.9595,0,0,0,0,0,0,3.9178,3.9191,3.9223,3.9234,3.9245,3.933,3.9267,3.9265,3.9284,3.9278,3.9291,3.9291,3.9278,3.9342,3.9353,3.9398,3.9311,3.9508,3.9514,3.952,3.9588,3.9601,3.9613,0,0,0,0,0,3.9173,3.9241,3.9225,3.9235,3.9285,3.9333,3.9339,3.9323,3.9288,3.932,3.932,3.929,3.9387,3.9349,3.936,3.9407,3.9505,3.9512,3.9519,3.9583,3.9599,3.9613,0,0,0,0,0,0,3.9234,3.9242,3.9224,3.9297,3.9315,3.9323,3.9363,3.9341,3.9368,3.9361,3.9339,3.9343,3.9409,3.9414,3.9372,3.9491,3.944,3.945,3.9485,3.95,3.9512,3.9509,3.9315,0,0,0,0,0,3.9257,3.9295,3.93,3.9364,3.9374,3.9368,3.9388,3.9374,3.9391,3.9398,3.9403,3.942,3.9455,3.9478,3.9509,3.9589,3.9592,3.9627,3.9639,3.965,3.9658,3.9702,3.9718,3.9547,3.9547,3.9547,0,0,3.9302,3.9311,3.9337,3.9377,3.9389,3.9429,3.9374,3.9419,3.9449,3.9405,3.9464,3.9468,3.9486,3.9558,3.9589,3.9564,3.9706,3.9659,3.9667,3.967,3.9711,3.9727,3.9741,3.9552,3.9551,3.955,0,0,3.9406,3.9417,3.9472,3.9486,3.9506,3.9501,3.9515,3.9527,3.9529,3.9588,3.9556,3.9591,3.9651,3.9666,3.9681,3.9794,3.9767,3.9805,3.9868,3.9911,3.9925,3.9936,3.9977,3.9992,3.9813,3.9813,3.9813,0,3.946,3.952,3.9503,3.9551,3.957,3.9534,3.959,3.9604,3.9633,3.9647,3.9618,3.9694,3.9703,3.9778,3.9806,3.982,3.9835,3.9802,3.9924,3.9936,3.9947,3.9985,4.0,3.9818,3.9817,3.9817,3.9816,0,3.9586,3.9628,3.9671,3.9701,3.9725,3.9776,3.9768,3.9794,3.9779,3.9778,3.9839,3.985,3.9884,3.9901,3.9886,3.9975,3.9958,3.9928,3.9876,3.9968,4.0003,4.0018,3.9824,3.9822,3.9821,3.982,0,0,3.9727,3.9749,3.9765,3.9779,3.9799,3.9831,3.9882,3.9916,3.9939,3.9961,4.0003,4.0056,4.0028,4.0045,4.0033,4.007,4.016,4.0035,4.0035,4.0058,4.0258,4.0281,4.0298,4.0143,4.0146,4.0148,4.0257,0,3.9831,3.9919,3.9907,3.9991,4.0031,3.9998,4.0042,4.006,4.0061,4.0094,4.0095,4.0133,4.0093,4.0104,4.014,4.0141,4.02,4.0133,4.0182,4.0184,4.0177,4.0317,4.034,4.0442,4.027,4.0273,4.0275,0,3.9963,3.9991,4.008,4.0096,4.0112,4.0152,4.0183,4.0216,4.0235,4.0233,4.0254,4.0235,4.0286,4.0235,4.0306,4.0261,4.028,4.0285,4.0288,4.0291,4.0234,4.0323,4.0474,4.049,4.0296,4.0295,4.0293,0,4.0057,4.0117,4.0179,4.0191,4.0211,4.024,4.025,4.0266,4.0288,4.0316,4.033,4.0363,4.0381,4.0407,4.0397,4.0361,4.047,4.0418,4.047,4.047,4.0493,4.0491,4.0649,4.0507,4.0506,4.0506,4.0506,0,4.0174,4.023,4.0221,4.0259,4.0321,4.0307,4.0368,4.0374,4.0389,4.0428,4.0402,4.0438,4.0424,4.046,4.0453,4.0513,4.0521,4.0521,4.0518,4.0523,4.0523,4.0534,4.0527,4.051,4.0509,4.0509,4.0508,0,4.0289,4.0286,4.035,4.0365,4.037,4.0415,4.0427,4.0462,4.0462,4.0511,4.0522,4.0521,4.0562,4.0556,4.0601,4.0596,4.0671,4.066,4.0665,4.0662,4.0714,4.0709,4.0884,4.0906,4.075,4.0752,4.0753,0,4.0363,4.0406,4.0425,4.045,4.0462,4.0501,4.0524,4.0512,4.0537,4.0564,4.0596,4.0635,4.0665,4.0733,4.0736,4.0771,4.076,4.0819,4.0765,4.0769,4.0761,4.0758,4.0763,4.0829,4.0831,4.0833,4.0834,0,4.0496,4.0493,4.0527,4.0561,4.0589,4.0616,4.0639,4.0661,4.0651,4.0681,4.0723,4.0747,4.0794,4.0833,4.0866,4.0876,4.0854,4.0851,4.0865,4.087,4.0871,4.0871,4.0693,4.0847,4.0846,4.0845,4.0844,4.0843,4.0592,4.0629,4.0649,4.0688,4.0706,4.0729,4.0763,4.0768,4.0804,4.0841,4.0833,4.0881,4.0901,4.0943,4.0957,4.0994,4.0972,4.0992,4.0997,4.1002,4.1009,4.0866,4.1,4.1,4.0999,4.0999,4.0999,0,4.0723,4.0735,4.0772,4.0807,4.0838,4.0816,4.0841,4.0869,4.0912,4.0933,4.0964,4.1013,4.1052,4.1059,4.1096,4.1125,4.1116,4.1135,4.1132,4.1135,4.1026,4.101,4.1141,4.1141,4.1141,4.1141,4.1141,4.1141,4.0795,4.0856,4.0856,4.0926,4.0937,4.0985,4.1001,4.1023,4.104,4.1096,4.1128,4.1134,4.1149,4.1188,4.1222,4.1223,4.1238,4.1261,4.1259,4.1156,4.1142,4.1129,4.1114,4.1265,4.1265,4.1364,4.1365,4.1366]},{"header":{"parameterUnit":"m.s-1","parameterCategory":1,"la1":30.2991,"la2":30.254,"lo1":-89.0895,"lo2":-89.0444,"dy":0.0017,"dx":0.0017,"nx":28,"ny":28,"refTime":"2026-01-30T03:00:00:Z","depth":0,"parameterNumber":3,"parameterNumberName":"V-component_of_WINDS"},"data":[0,0,0,0,0,0,0,0,0,0,0,0,0,0,0,0,0,0,0,0,0,0,0,0,0,0,0,0,0,0,0,0,0,0,0,0,0,0,0,0,0,0,0,0,0,0,0,0,0,0,0,0,0,0,0,0,0,0,-8.9902,-8.9905,0,-9.0153,-9.0156,-9.0159,-9.0103,-9.0098,-9.0093,-9.0089,-9.034,-9.0351,-9.0362,0,0,0,0,0,0,0,0,0,0,0,0,0,-8.937,-8.938,-8.9902,-8.9905,-8.9908,-9.0152,-9.0156,-9.0159,-9.0103,-9.0098,-9.0092,-9.0087,-9.0337,-9.035,-9.0363,0,0,0,0,0,0,0,0,0,0,0,0,0,-8.9609,-8.9384,-8.9901,-8.991,-8.9913,-9.0152,-9.0156,-9.016,-9.0105,-9.0098,-9.009,-9.0084,-9.0332,-9.0349,-9.0365,-9.0609,0,0,-9.0416,-9.0423,0,0,0,0,0,0,0,0,-8.9596,-8.9629,-8.9905,-8.991,-8.9914,-9.0089,-9.0061,-9.0311,-9.0106,-9.0032,-9.0089,-9.008,-9.0262,-9.0284,-9.0347,-9.0621,-9.0632,-9.0417,-9.0427,-9.0435,-9.0439,0,0,0,0,0,0,0,-8.9579,-8.9618,-9.0001,-8.9909,-8.9915,-8.99,-8.9926,-9.0108,-9.0183,-9.0038,-9.0034,-9.0065,-9.0263,-9.0331,-9.0352,-9.0635,-9.0417,-9.0432,-9.0442,-9.0448,-9.1123,-9.1131,0,0,0,0,0,0,-8.956,-8.9604,-8.9993,-9.0008,-8.9734,-8.9915,-8.9944,-9.004,-9.0181,-9.0196,-9.0071,-9.0062,-9.0306,-9.0333,-9.0361,-9.0657,-9.0434,-9.045,-9.046,-9.1115,-9.1125,-9.1133,0,0,0,0,0,0,-8.9549,-8.9595,-8.9983,-8.9806,-8.9854,-8.9932,-9.004,-9.0049,-9.0116,-9.0206,-9.0219,-9.0126,-9.0301,-9.0337,-9.0548,-9.0664,-9.0458,-9.0473,-9.1106,-9.1118,-9.1129,-9.125,0,0,0,0,0,0,-8.9533,-8.9591,-8.9686,-8.9808,-8.9864,-9.0168,-9.0047,-9.0059,-9.0146,-9.0136,-9.0262,-9.0276,-9.0298,-9.0524,-9.0565,-9.0684,-9.0486,-9.1096,-9.1111,-9.1125,-9.1236,-9.1264,-9.1289,0,0,0,0,0,-8.9515,-8.9708,-8.9691,-8.9738,-8.9984,-9.0175,-9.0206,-9.023,-9.0155,-9.025,-9.0308,-9.0272,-9.0645,-9.0546,-9.0592,-9.0717,-9.1089,-9.1107,-9.1124,-9.1224,-9.1259,-9.1288,0,0,0,0,0,0,-8.9595,-8.9724,-8.9706,-8.9946,-9.005,-9.0165,-9.0286,-9.0266,-9.0392,-9.0377,-9.04,-9.0429,-9.0644,-9.0701,-9.0589,-9.0961,-9.0856,-9.0884,-9.0916,-9.095,-9.0976,-9.0957,-9.0499,0,0,0,0,0,-8.9641,-8.9787,-8.9891,-9.0092,-9.0146,-9.0207,-9.0291,-9.0301,-9.0409,-9.0452,-9.0525,-9.063,-9.0771,-9.0863,-9.0998,-9.1244,-9.127,-9.1352,-9.1379,-9.14,-9.1424,-9.1559,-9.1596,-9.1192,-9.1192,-9.1192,0,0,-8.9737,-8.9826,-8.9916,-9.0111,-9.0193,-9.0343,-9.0244,-9.0406,-9.0517,-9.0476,-9.0681,-9.0738,-9.0857,-9.1086,-9.1191,-9.1141,-9.1542,-9.1423,-9.1439,-9.1452,-9.1581,-9.1619,-9.1653,-9.1204,-9.1202,-9.12,0,0,-8.9988,-9.007,-9.0247,-9.0332,-9.0458,-9.0497,-9.054,-9.0659,-9.0696,-9.0902,-9.0875,-9.1006,-9.1248,-9.1334,-9.141,-9.1695,-9.1666,-9.1738,-9.1876,-9.2007,-9.2039,-9.2068,-9.217,-9.2206,-9.1761,-9.1762,-9.1762,0,-9.0091,-9.0317,-9.034,-9.0506,-9.0592,-9.0564,-9.0743,-9.0823,-9.0986,-9.1046,-9.0988,-9.1292,-9.137,-9.162,-9.169,-9.1752,-9.18,-9.1724,-9.2033,-9.2062,-9.2089,-9.2186,-9.2225,-9.177,-9.1769,-9.1768,-9.1767,0,-9.0437,-9.0594,-9.0722,-9.0882,-9.0983,-9.1154,-9.1203,-9.1302,-9.1303,-9.1348,-9.1558,-9.1651,-9.1804,-9.1864,-9.1865,-9.2115,-9.208,-9.2027,-9.1922,-9.2135,-9.2227,-9.2264,-9.1781,-9.1778,-9.1776,-9.1774,0,0,-9.0745,-9.0918,-9.0964,-9.1037,-9.1175,-9.1296,-9.1466,-9.1618,-9.1703,-9.1816,-9.1959,-9.2165,-9.2118,-9.2204,-9.2215,-9.233,-9.2551,-9.2264,-9.2267,-9.2314,-9.2831,-9.287,-9.2913,-9.2533,-9.254,-9.2546,-9.2821,0,-9.1009,-9.1311,-9.1338,-9.1608,-9.1753,-9.1729,-9.1877,-9.1977,-9.2024,-9.2153,-9.2204,-9.2351,-9.2277,-9.2329,-9.2442,-9.25,-9.2655,-9.248,-9.2665,-9.2671,-9.2636,-9.2961,-9.3003,-9.3259,-9.2858,-9.2864,-9.2868,0,-9.1358,-9.1484,-9.177,-9.1888,-9.195,-9.2083,-9.2225,-9.2349,-9.2461,-9.2487,-9.2584,-9.258,-9.2754,-9.2643,-9.2882,-9.2763,-9.284,-9.288,-9.289,-9.2908,-9.2782,-9.2988,-9.3341,-9.3379,-9.2925,-9.292,-9.2916,0,-9.1555,-9.1796,-9.1998,-9.2061,-9.2204,-9.2298,-9.2362,-9.2467,-9.2557,-9.2681,-9.2739,-9.2881,-9.2958,-9.3067,-9.3101,-9.3017,-9.334,-9.3231,-9.3366,-9.3365,-9.3435,-9.343,-9.3805,-9.3484,-9.3483,-9.3483,-9.3482,0,-9.1847,-9.2023,-9.2089,-9.2213,-9.241,-9.2438,-9.2631,-9.2689,-9.2783,-9.2918,-9.2904,-9.3031,-9.3068,-9.32,-9.3227,-9.3422,-9.3457,-9.3482,-9.3487,-9.3484,-9.3481,-9.3534,-9.3517,-9.3493,-9.3491,-9.3489,-9.3487,0,-9.21,-9.2151,-9.2371,-9.2489,-9.2522,-9.2662,-9.2762,-9.2882,-9.2927,-9.3098,-9.3139,-9.321,-9.3365,-9.341,-9.3596,-9.3614,-9.3843,-9.3831,-9.3806,-9.3806,-9.3938,-9.3925,-9.4361,-9.442,-9.406,-9.4064,-9.4066,0,-9.2283,-9.2418,-9.2552,-9.2642,-9.271,-9.2855,-9.2948,-9.298,-9.3077,-9.3216,-9.3319,-9.3473,-9.3598,-9.3847,-9.3914,-9.4057,-9.4049,-9.4192,-9.407,-9.4062,-9.4051,-9.4043,-9.4057,-9.4214,-9.4218,-9.4221,-9.4224,0,-9.2603,-9.2623,-9.2757,-9.2902,-9.3013,-9.3128,-9.3238,-9.3312,-9.3361,-9.347,-9.363,-9.3727,-9.3918,-9.4071,-9.4216,-9.4279,-9.4261,-9.4262,-9.4301,-9.4298,-9.4278,-9.4291,-9.3869,-9.4251,-9.4249,-9.4247,-9.4245,-9.4244,-9.2828,-9.2947,-9.306,-9.3211,-9.3297,-9.3401,-9.352,-9.3581,-9.3716,-9.3875,-9.3886,-9.4059,-9.4168,-9.4361,-9.4433,-9.4568,-9.4525,-9.4581,-9.4596,-9.4609,-9.4621,-9.4257,-9.4594,-9.4593,-9.4593,-9.4592,-9.4591,0,-9.3147,-9.3219,-9.3358,-9.3514,-9.3632,-9.3606,-9.3726,-9.3827,-9.3981,-9.4085,-9.4209,-9.4393,-9.4542,-9.4621,-9.4769,-9.4862,-9.4857,-9.4899,-9.4893,-9.4908,-9.465,-9.4602,-9.4901,-9.4901,-9.4901,-9.4901,-9.4901,-9.4901,-9.3328,-9.3529,-9.3561,-9.3805,-9.3875,-9.4046,-9.4118,-9.4213,-9.4297,-9.4504,-9.4628,-9.4679,-9.4774,-9.4929,-9.5064,-9.5083,-9.5138,-9.5186,-9.52,-9.4958,-9.4926,-9.4896,-9.4851,-9.5198,-9.5198,-9.5447,-9.545,-9.5451]}]]